Weather History for North Bend, OR

Change the Weather History Date:

Tuesday, October 18, 2011

  Actual Average Record
Temperature  
Mean Temperature 64 °F 53 °F  
Max Temperature 75 °F 61 °F 85 °F (1964)
Min Temperature 52 °F 46 °F 31 °F (1908)
Degree Days  
Heating Degree Days 1 12  
Month to date heating degree days 147 194  
Since 1 July heating degree days 698 802  
Cooling Degree Days 0 0  
Month to date cooling degree days 0 0  
Year to date cooling degree days 1 2  
Growing Degree Days 12 (Base 50)    
Moisture  
Dew Point 47 °F    
Average Humidity 64    
Maximum Humidity 83    
Minimum Humidity 46    
Precipitation  
Precipitation 0.00 in 0.16 in 2.96 in (1990)
Month to date precipitation 2.26 2.09  
Year to date precipitation 30.44 40.91  
Sea Level Pressure  
Sea Level Pressure 30.04 in    
Wind  
Wind Speed 6 mph (SSE)    
Max Wind Speed 15 mph    
Max Gust Speed -    
Visibility 10 miles    
Events      
T = Trace of Precipitation, MM = Missing Value Source: NWS Daily Summary

Daily Weather History Graph

Daily Weather History Graph

Search for Another Location

Airport:

Trip Planner

Search our weather history database for the weather conditions in past years. The results will help you decide how hot, cold, wet, or windy it might be!

Date:

Astronomy

Oct. 18, 2011 Rise Set
Actual Time 7:34 AM PDT 6:29 PM PDT
Civil Twilight 7:05 AM PDT 6:58 PM PDT
Nautical Twilight 6:32 AM PDT 7:31 PM PDT
Astronomical Twilight 5:59 AM PDT 8:04 PM PDT
Moon 11:10 PM PDT (10/18) 1:35 PM PDT (10/18)
Length of Visible Light 11h 52m
Length of Day
10h 54m
Waning Gibbous, 64% of the Moon is Illuminated
Oct 18
Waning Gibbous
Oct 19
Last Quarter
Oct 26
New
Nov 2
First Quarter
Nov 10
Full

Hourly Weather History & Observations

Time (PDT) Temp. Dew Point Humidity Pressure Visibility Wind Dir Wind Speed Gust Speed Precip Events Conditions
12:15 AM 48.2 °F 42.8 °F 82% 30.09 in 10.0 mi NNE 3.5 mph - N/A   Clear
12:35 AM 50.0 °F 42.8 °F 76% 30.09 in 10.0 mi NE 3.5 mph - N/A   Clear
12:55 AM 51.8 °F 42.8 °F 71% 30.08 in 10.0 mi Calm Calm - N/A   Clear
1:15 AM 53.6 °F 42.8 °F 67% 30.08 in 10.0 mi SE 3.5 mph - N/A   Clear
1:35 AM 51.8 °F 39.2 °F 62% 30.07 in 10.0 mi SE 5.8 mph - N/A   Clear
1:55 AM 51.8 °F 42.8 °F 71% 30.07 in 10.0 mi South 4.6 mph - N/A   Clear
2:15 AM 53.6 °F 42.8 °F 67% 30.07 in 10.0 mi SE 4.6 mph - N/A   Clear
2:35 AM 53.6 °F 42.8 °F 67% 30.06 in 10.0 mi Calm Calm - N/A   Clear
2:55 AM 53.6 °F 42.8 °F 67% 30.06 in 10.0 mi SSE 5.8 mph - N/A   Clear
3:15 AM 53.6 °F 42.8 °F 67% 30.05 in 10.0 mi SSE 3.5 mph - N/A   Clear
3:35 AM 53.6 °F 42.8 °F 67% 30.05 in 10.0 mi ESE 6.9 mph - N/A   Clear
3:55 AM 51.8 °F 41.0 °F 67% 30.05 in 10.0 mi Calm Calm - N/A   Clear
4:15 AM 53.6 °F 42.8 °F 67% 30.04 in 10.0 mi SE 4.6 mph - N/A   Clear
4:35 AM 51.8 °F 42.8 °F 71% 30.04 in 10.0 mi SE 6.9 mph - N/A   Clear
4:55 AM 51.8 °F 42.8 °F 71% 30.04 in 10.0 mi SSE 6.9 mph - N/A   Clear
5:15 AM 53.6 °F 42.8 °F 67% 30.05 in 10.0 mi South 5.8 mph - N/A   Clear
5:35 AM 51.8 °F 42.8 °F 71% 30.04 in 10.0 mi SSE 8.1 mph - N/A   Clear
5:55 AM 51.8 °F 42.8 °F 71% 30.04 in 10.0 mi SSE 8.1 mph - N/A   Clear
6:15 AM 51.8 °F 42.8 °F 71% 30.04 in 10.0 mi SSE 6.9 mph - N/A   Clear
6:35 AM 51.8 °F 42.8 °F 71% 30.04 in 10.0 mi SE 4.6 mph - N/A   Clear
6:55 AM 51.8 °F 42.8 °F 71% 30.04 in 10.0 mi Calm Calm - N/A   Clear
7:15 AM 51.8 °F 42.8 °F 71% 30.04 in 10.0 mi Calm Calm - N/A   Clear
7:35 AM 51.8 °F 44.6 °F 76% 30.04 in 10.0 mi Calm Calm - N/A   Clear
7:55 AM 51.8 °F 42.8 °F 71% 30.05 in 10.0 mi SE 4.6 mph - N/A   Clear
8:15 AM 51.8 °F 44.6 °F 76% 30.05 in 10.0 mi SSE 4.6 mph - N/A   Clear
8:35 AM 53.6 °F 44.6 °F 72% 30.05 in 10.0 mi SSE 5.8 mph - N/A   Clear
8:55 AM 55.4 °F 46.4 °F 72% 30.05 in 10.0 mi SSE 6.9 mph - N/A   Clear
9:15 AM 57.2 °F 46.4 °F 67% 30.06 in 10.0 mi SSE 10.4 mph - N/A   Clear
9:35 AM 59.0 °F 46.4 °F 63% 30.06 in 10.0 mi SSE 10.4 mph - N/A   Clear
9:55 AM 60.8 °F 46.4 °F 59% 30.05 in 10.0 mi SSE 10.4 mph - N/A   Clear
10:15 AM 62.6 °F 48.2 °F 59% 30.05 in 10.0 mi SSE 6.9 mph - N/A   Clear
10:35 AM 62.6 °F 48.2 °F 59% 30.06 in 10.0 mi SSE 6.9 mph - N/A   Clear
10:55 AM 64.4 °F 48.2 °F 56% 30.05 in 10.0 mi ESE 5.8 mph - N/A   Clear
11:15 AM 68.0 °F 51.8 °F 56% 30.05 in 10.0 mi ESE 6.9 mph - N/A   Clear
11:35 AM 69.8 °F 51.8 °F 53% 30.04 in 10.0 mi SE 5.8 mph - N/A   Clear
11:55 AM 71.6 °F 51.8 °F 50% 30.03 in 10.0 mi ESE 8.1 mph - N/A   Clear
12:15 PM 71.6 °F 51.8 °F 50% 30.03 in 10.0 mi SE 5.8 mph - N/A   Clear
12:35 PM 73.4 °F 53.6 °F 50% 30.03 in 10.0 mi East 4.6 mph - N/A   Clear
12:55 PM 75.2 °F 53.6 °F 47% 30.02 in 10.0 mi East 4.6 mph - N/A   Clear
1:15 PM 75.2 °F 51.8 °F 44% 30.02 in 10.0 mi NNE 3.5 mph - N/A   Clear
1:35 PM 73.4 °F 51.8 °F 47% 30.02 in 10.0 mi West 9.2 mph - N/A   Clear
1:55 PM 73.4 °F 51.8 °F 47% 30.01 in 10.0 mi West 15.0 mph - N/A   Clear
2:15 PM 69.8 °F 51.8 °F 53% 30.00 in 10.0 mi West 13.8 mph - N/A   Clear
2:35 PM 66.2 °F 51.8 °F 60% 30.01 in 10.0 mi West 12.7 mph - N/A   Clear
2:55 PM 64.4 °F 51.8 °F 64% 30.01 in 10.0 mi WNW 6.9 mph - N/A   Clear
3:15 PM 64.4 °F 51.8 °F 64% 30.00 in 10.0 mi WNW 6.9 mph - N/A   Clear
3:35 PM 66.2 °F 51.8 °F 60% 30.00 in 10.0 mi NW 5.8 mph - N/A   Clear
3:55 PM 64.4 °F 51.8 °F 64% 30.00 in 10.0 mi WNW 9.2 mph - N/A   Clear
4:15 PM 64.4 °F 51.8 °F 64% 30.00 in 10.0 mi WNW 8.1 mph - N/A   Clear
4:35 PM 62.6 °F 51.8 °F 68% 30.00 in 9.0 mi West 12.7 mph - N/A   Clear
4:55 PM 62.6 °F 50.0 °F 63% 29.99 in 10.0 mi West 10.4 mph - N/A   Clear
5:15 PM 60.8 °F 50.0 °F 68% 29.99 in 10.0 mi WNW 9.2 mph - N/A   Clear
5:35 PM 60.8 °F 50.0 °F 68% 29.99 in 9.0 mi WNW 9.2 mph - N/A   Clear
5:55 PM 59.0 °F 50.0 °F 72% 29.99 in 7.0 mi WNW 10.4 mph - N/A   Clear
6:15 PM 57.2 °F 50.0 °F 77% 29.99 in 6.0 mi West 11.5 mph - N/A   Clear
6:35 PM 57.2 °F 48.2 °F 72% 29.99 in 7.0 mi West 10.4 mph - N/A   Clear
6:55 PM 55.4 °F 48.2 °F 77% 29.99 in 7.0 mi West 5.8 mph - N/A   Partly Cloudy
7:15 PM 55.4 °F 48.2 °F 77% 30.00 in 5.0 mi NW 5.8 mph - N/A   Mostly Cloudy
7:35 PM 53.6 °F 48.2 °F 82% 30.00 in 7.0 mi NNW 4.6 mph - N/A   Mostly Cloudy
7:55 PM 53.6 °F 48.2 °F 82% 30.00 in 8.0 mi NW 4.6 mph - N/A   Mostly Cloudy
8:15 PM 53.6 °F 48.2 °F 82% 30.00 in 8.0 mi NW 4.6 mph - N/A   Mostly Cloudy
8:35 PM 53.6 °F 48.2 °F 82% 30.00 in 7.0 mi NW 3.5 mph - N/A   Scattered Clouds
8:55 PM 53.6 °F 48.2 °F 82% 30.01 in 8.0 mi North 5.8 mph - N/A   Partly Cloudy
9:15 PM 53.6 °F 48.2 °F 82% 30.02 in 10.0 mi NNW 6.9 mph - N/A   Clear
9:35 PM 53.6 °F 48.2 °F 82% 30.02 in 7.0 mi North 4.6 mph - N/A   Partly Cloudy
9:55 PM 53.6 °F 48.2 °F 82% 30.02 in 8.0 mi NNE 4.6 mph - N/A   Mostly Cloudy
10:15 PM 53.6 °F 48.2 °F 82% 30.02 in 10.0 mi Calm Calm - N/A   Overcast
10:35 PM 55.4 °F 48.2 °F 77% 30.02 in 10.0 mi West 3.5 mph - N/A   Overcast
10:55 PM 55.4 °F 48.2 °F 77% 30.02 in 10.0 mi WSW 3.5 mph - N/A   Overcast
11:15 PM 55.4 °F 48.2 °F 77% 30.02 in 10.0 mi SW 4.6 mph - N/A   Overcast
11:35 PM 55.4 °F 48.2 °F 77% 30.03 in 10.0 mi SSW 10.4 mph - N/A   Overcast
11:55 PM 55.4 °F 48.2 °F 77% 30.03 in 9.0 mi SSW 8.1 mph - N/A   Overcast